Location: Alexander
(41.3564°N, 81.5960°W)
Time: 09:31:20
(UTC+00:00)

NOSS 3-1 (C) - Pass Details

Date: 24 January 2021
Orbit: 723 x 1485 km, 63.3° (Epoch: 02 March)

Event Time Altitude Azimuth Distance (km) Brightness Sun altitude
Rises 23:34:55 0° 327° (NNW) 3,928 6.9 -11.7°
Reaches altitude 10° 23:37:30 10° 332° (NNW) 3,073 6.3 -12.2°
Maximum altitude 23:44:54 55° 49° (NE) 1,541 4.2 -13.5°
Drops below altitude 10° 23:53:27 10° 126° (SE) 3,538 6.0 -15.1°
Sets 23:56:37 0° 131° (SE) 4,561 6.6 -15.7°
